Regional Weather Roundup
Issued by NWS

Home | Current Version | Previous Version | Graphics & Text | Print | Product List | Glossary On
Versions: 1 2 3 4 5 6 7 8 9 10 11 12 13 14 15 16 17 18 19 20 21 22 23 24 25 26 27 28 29 30 31 32 33 34 35 36 37 38 39 40 41 42 43 44 45 46 47 48 49 50
000
ASUS43 KLSX 280907
RWRMO
STLRWRMO ALL

WEATHER SUMMARY FOR MISSOURI
NATIONAL WEATHER SERVICE SPRINGFIELD MO
400 AM CDT FRI APR 28 2017

NOTE: "FAIR" INDICATES FEW OR NO CLOUDS BELOW 12,000 FEET WITH NO
       SIGNIFICANT WEATHER AND/OR OBSTRUCTIONS TO VISIBILITY.
       CURRENT SKY AND/OR WEATHER CONDITIONS ARE NOT AVAILABLE FOR
       CHILLICOTHE AND FARMINGTON.

MOZ001>031-035>038-043-044-053-054-281000-
...NORTHERN AND WESTERN MISSOURI...

CITY           SKY/WX    TMP DP  RH WIND       PRES   REMARKS
KANSAS CTY INT LGT RAIN  50  47  89 E15       29.70F
KANSAS C DTWN  LGT RAIN  52  49  89 E8        29.70F
LEE`S SUMMIT   CLOUDY    51  49  92 E9        29.71F
ST JOSEPH      LGT RAIN  51  48  89 VRB3      29.74F
CHILLICOTHE      N/A     51  49  92 E5        29.78F
KIRKSVILLE     CLOUDY    49  47  93 E7        29.83R

$$
MOZ066>068-077>081-088>096-101>105-281000-
...SOUTHWEST MISSOURI...

CITY           SKY/WX    TMP DP  RH WIND       PRES   REMARKS
SPRINGFIELD    RAIN      56  53  90 S28G36    29.70R FOG
JOPLIN         CLOUDY    58  54  86 S13       29.66R
BRANSON        CLOUDY    54  50  87 SE10      29.79F

$$
MOZ032>034-039>042-045>050-055>058-069>072-281000-
...CENTRAL MISSOURI...

CITY           SKY/WX    TMP DP  RH WIND       PRES   REMARKS
COLUMBIA       CLOUDY    52  47  83 E7        29.77F
JEFFERSON CITY LGT RAIN  56  48  74 SE9       29.76F
ROLLA          CLOUDY    54  50  86 E3        29.77S
SEDALIA        CLOUDY    54  49  83 E7        29.76F
WHITEMAN AFB   LGT RAIN  53  53 100 E12       29.71S
OSAGE BEACH    CLOUDY    55  51  86 E6        29.74F

$$
MOZ051-052-059>065-281000-
...EAST CENTRAL MISSOURI...

CITY           SKY/WX    TMP DP  RH WIND       PRES   REMARKS
ST LOUIS INTL  CLOUDY    56  49  77 E7        29.83F
SPIRIT OF STL  CLOUDY    53  52  96 NE3       29.81F
ST CHARLES     CLOUDY    53  52  96 E9        29.82F

$$
MOZ072>076-082>087-097>100-106>115-281000-
...SOUTH CENTRAL AND SOUTHEAST MISSOURI...

CITY           SKY/WX    TMP DP  RH WIND       PRES   REMARKS
CAPE GIRARDEAU CLOUDY    53  50  89 SE6       29.85R
FARMINGTON     CLOUDY    53  50  89 SE10      29.82S
POPLAR BLUFF   CLOUDY    57  53  86 E3        29.83S
WEST PLAINS    CLOUDY    54  51  90 CALM      29.84S

$$



USA.gov is the U.S. government's official web portal to all federal, state and local government web resources and services.